When you browse on this site, cookies collect data to enhance your experience and personalize the content and advertising you see.
Visit our Privacy Policy to learn more. By continuing to use the site, you agree to this use of cookies and data.
  • In Switzerland
  • List of Countries
  • For 7 days
  • Water Temperature
  • Satellite Maps
  • Weather Map
  • Weather Widgets
  • user-avatar
    Login

    Hourly Weather Memmingen

    Today, 26 May, Sunday

    Time Temperature Precipitation Wind Pressure Humidity
    00:00 +10°C° 0 mm 1 mps 709 mmHg 92%
    01:00 +10°C° 0 mm 1 mps 709 mmHg 92%
    02:00 +9°C° 0 mm 1 mps 709 mmHg 93%
    03:00 +9°C° 0 mm 1 mps 709 mmHg 93%
    04:00 +9°C° 0 mm 1 mps 709 mmHg 94%
    05:00 +10°C° 0 mm 1 mps 709 mmHg 93%
    06:00 +11°C° 0 mm 1 mps 709 mmHg 92%
    07:00 +12°C° 0 mm 1 mps 709 mmHg 91%
    08:00 +14°C° 0 mm 1 mps 709 mmHg 83%
    09:00 +16°C° 0 mm 1 mps 709 mmHg 75%
    10:00 +19°C° 0 mm 1 mps 709 mmHg 66%
    11:00 +19°C° 0.1 mm 1 mps 709 mmHg 65%
    12:00 +20°C° 0.1 mm 1 mps 709 mmHg 64%
    13:00 +20°C° 0.1 mm 1 mps 709 mmHg 63%
    14:00 +21°C° 0.2 mm 1 mps 708 mmHg 64%
    15:00 +21°C° 0.2 mm 1 mps 708 mmHg 65%
    16:00 +21°C° 0.2 mm 1 mps 708 mmHg 66%
    17:00 +20°C° 0.3 mm 1 mps 708 mmHg 72%
    18:00 +19°C° 0.3 mm 1 mps 708 mmHg 78%
    19:00 +16°C° 0.3 mm 0 mps 707 mmHg 84%
    20:00 +14°C° 0.1 mm 0 mps 707 mmHg 86%
    21:00 +13°C° 0.1 mm 0 mps 707 mmHg 88%
    22:00 +11°C° 0.1 mm 0 mps 707 mmHg 90%
    23:00 +11°C° 0 mm 0 mps 707 mmHg 91%

    Tomorrow, 27 May, Monday

    Time Temperature Precipitation Wind Pressure Humidity
    00:00 +10°C° 0 mm 0 mps 707 mmHg 91%
    01:00 +10°C° 0 mm 0 mps 707 mmHg 92%
    02:00 +10°C° 0 mm 1 mps 706 mmHg 93%
    03:00 +10°C° 0 mm 1 mps 706 mmHg 93%
    04:00 +10°C° 0 mm 1 mps 706 mmHg 94%
    05:00 +11°C° 0 mm 1 mps 706 mmHg 93%
    06:00 +12°C° 0 mm 1 mps 706 mmHg 93%
    07:00 +13°C° 0 mm 1 mps 706 mmHg 92%
    08:00 +15°C° 0.1 mm 1 mps 706 mmHg 86%
    09:00 +16°C° 0.1 mm 1 mps 706 mmHg 80%
    10:00 +18°C° 0.1 mm 2 mps 706 mmHg 75%
    11:00 +18°C° 0.4 mm 2 mps 706 mmHg 72%
    12:00 +19°C° 0.4 mm 2 mps 705 mmHg 70%
    13:00 +21°C° 0.4 mm 1 mps 705 mmHg 67%
    14:00 +21°C° 0.2 mm 1 mps 705 mmHg 67%
    15:00 +21°C° 0.2 mm 1 mps 704 mmHg 68%
    16:00 +21°C° 0.2 mm 1 mps 704 mmHg 68%
    17:00 +20°C° 0.6 mm 1 mps 704 mmHg 76%
    18:00 +18°C° 0.6 mm 1 mps 703 mmHg 84%
    19:00 +16°C° 0.6 mm 2 mps 703 mmHg 92%
    20:00 +15°C° 0.6 mm 1 mps 703 mmHg 93%
    21:00 +14°C° 0.6 mm 1 mps 703 mmHg 95%
    22:00 +13°C° 0.6 mm 1 mps 703 mmHg 96%
    23:00 +13°C° 0.2 mm 1 mps 703 mmHg 97%

    Day after tomorrow, 28 May, Tuesday

    Time Temperature Precipitation Wind Pressure Humidity
    00:00 +13°C° 0.2 mm 1 mps 703 mmHg 97%
    01:00 +13°C° 0.2 mm 1 mps 702 mmHg 98%
    02:00 +12°C° 1 mm 2 mps 702 mmHg 98%
    03:00 +12°C° 1 mm 2 mps 702 mmHg 98%
    04:00 +11°C° 1 mm 3 mps 702 mmHg 98%
    05:00 +11°C° 0.5 mm 3 mps 702 mmHg 97%
    06:00 +11°C° 0.5 mm 3 mps 702 mmHg 97%
    07:00 +11°C° 0.5 mm 3 mps 702 mmHg 96%
    08:00 +11°C° 0.4 mm 3 mps 702 mmHg 95%
    09:00 +11°C° 0.4 mm 3 mps 703 mmHg 93%
    10:00 +12°C° 0.4 mm 3 mps 703 mmHg 91%
    11:00 +12°C° 0.7 mm 3 mps 703 mmHg 91%
    12:00 +12°C° 0.7 mm 3 mps 703 mmHg 91%
    13:00 +12°C° 0.7 mm 3 mps 703 mmHg 91%
    14:00 +11°C° 0.7 mm 3 mps 703 mmHg 91%
    15:00 +11°C° 0.7 mm 3 mps 703 mmHg 92%
    16:00 +11°C° 0.7 mm 3 mps 703 mmHg 93%
    17:00 +11°C° 0.4 mm 3 mps 703 mmHg 93%
    18:00 +11°C° 0.4 mm 3 mps 703 mmHg 94%
    19:00 +10°C° 0.4 mm 3 mps 703 mmHg 94%
    20:00 +10°C° 0.5 mm 3 mps 704 mmHg 95%
    21:00 +9°C° 0.5 mm 3 mps 704 mmHg 96%
    22:00 +8°C° 0.5 mm 3 mps 704 mmHg 97%
    23:00 +8°C° 0.7 mm 3 mps 704 mmHg 97%

    29 May, Wednesday

    Time Temperature Precipitation Wind Pressure Humidity
    00:00 +8°C° 0.7 mm 3 mps 704 mmHg 97%
    01:00 +8°C° 0.7 mm 3 mps 705 mmHg 97%
    02:00 +8°C° 0.3 mm 3 mps 705 mmHg 97%
    03:00 +7°C° 0.3 mm 3 mps 705 mmHg 97%
    04:00 +7°C° 0.3 mm 2 mps 705 mmHg 97%
    05:00 +7°C° 0.4 mm 3 mps 705 mmHg 97%
    06:00 +7°C° 0.4 mm 3 mps 706 mmHg 97%
    07:00 +7°C° 0.4 mm 3 mps 706 mmHg 96%
    08:00 +8°C° 0.5 mm 3 mps 706 mmHg 96%
    09:00 +8°C° 0.5 mm 3 mps 707 mmHg 95%
    10:00 +9°C° 0.5 mm 2 mps 707 mmHg 94%
    11:00 +10°C° 0.6 mm 2 mps 707 mmHg 92%
    12:00 +10°C° 0.6 mm 2 mps 707 mmHg 90%
    13:00 +12°C° 0.6 mm 2 mps 708 mmHg 89%
    14:00 +12°C° 0.7 mm 2 mps 708 mmHg 89%
    15:00 +12°C° 0.7 mm 2 mps 708 mmHg 90%
    16:00 +12°C° 0.7 mm 2 mps 708 mmHg 90%
    17:00 +12°C° 0.6 mm 2 mps 709 mmHg 92%
    18:00 +10°C° 0.6 mm 2 mps 709 mmHg 93%
    19:00 +10°C° 0.6 mm 2 mps 709 mmHg 94%
    20:00 +9°C° 0.2 mm 2 mps 710 mmHg 95%
    21:00 +9°C° 0.2 mm 2 mps 710 mmHg 95%
    22:00 +8°C° 0.2 mm 2 mps 711 mmHg 96%
    23:00 +8°C° 0 mm 2 mps 711 mmHg 96%

    30 May, Thursday

    Time Temperature Precipitation Wind Pressure Humidity
    00:00 +7°C° 0 mm 2 mps 711 mmHg 97%
    01:00 +7°C° 0 mm 2 mps 712 mmHg 97%
    02:00 +7°C° 0 mm 2 mps 712 mmHg 97%
    03:00 +6°C° 0 mm 2 mps 712 mmHg 97%
    04:00 +6°C° 0 mm 2 mps 712 mmHg 97%
    05:00 +7°C° 0.1 mm 2 mps 713 mmHg 96%
    06:00 +8°C° 0.1 mm 2 mps 713 mmHg 95%
    07:00 +9°C° 0.1 mm 2 mps 713 mmHg 94%
    08:00 +10°C° 0.2 mm 3 mps 713 mmHg 87%
    09:00 +12°C° 0.2 mm 3 mps 714 mmHg 80%
    10:00 +13°C° 0.2 mm 4 mps 714 mmHg 74%
    11:00 +14°C° 0.2 mm 4 mps 714 mmHg 69%
    12:00 +15°C° 0.2 mm 4 mps 714 mmHg 65%
    13:00 +17°C° 0.2 mm 4 mps 714 mmHg 61%
    14:00 +15°C° 0.2 mm 4 mps 714 mmHg 63%
    15:00 +15°C° 0.2 mm 4 mps 714 mmHg 65%
    16:00 +15°C° 0.2 mm 4 mps 714 mmHg 67%
    17:00 +14°C° 0.1 mm 3 mps 714 mmHg 72%
    18:00 +13°C° 0.1 mm 3 mps 714 mmHg 76%
    19:00 +12°C° 0.1 mm 3 mps 715 mmHg 81%
    20:00 +13°C° 0.1 mm 2 mps 715 mmHg 84%
    21:00 +12°C° 0.1 mm 2 mps 716 mmHg 87%
    22:00 +10°C° 0.1 mm 2 mps 716 mmHg 91%
    23:00 +9°C° 0 mm 2 mps 716 mmHg 92%

    31 May, Friday

    Time Temperature Precipitation Wind Pressure Humidity
    00:00 +8°C° 0 mm 2 mps 716 mmHg 94%
    01:00 +8°C° 0 mm 2 mps 716 mmHg 96%
    02:00 +8°C° 0 mm 2 mps 716 mmHg 95%
    03:00 +8°C° 0 mm 2 mps 716 mmHg 95%
    04:00 +8°C° 0 mm 2 mps 716 mmHg 95%
    05:00 +9°C° 0.1 mm 2 mps 716 mmHg 95%
    06:00 +9°C° 0.1 mm 2 mps 717 mmHg 94%
    07:00 +10°C° 0.1 mm 2 mps 717 mmHg 94%
    08:00 +12°C° 0 mm 3 mps 717 mmHg 89%
    09:00 +13°C° 0 mm 3 mps 717 mmHg 83%
    10:00 +15°C° 0 mm 4 mps 717 mmHg 77%
    11:00 +15°C° 0.6 mm 4 mps 717 mmHg 78%
    12:00 +17°C° 0.6 mm 3 mps 717 mmHg 79%
    13:00 +17°C° 0.6 mm 3 mps 717 mmHg 79%
    14:00 +18°C° 0.4 mm 3 mps 717 mmHg 80%
    15:00 +18°C° 0.4 mm 3 mps 717 mmHg 81%
    16:00 +18°C° 0.4 mm 3 mps 717 mmHg 82%
    17:00 +17°C° 0.3 mm 3 mps 717 mmHg 85%
    18:00 +17°C° 0.3 mm 2 mps 717 mmHg 88%
    19:00 +16°C° 0.3 mm 2 mps 717 mmHg 91%
    20:00 +15°C° 0 mm 2 mps 717 mmHg 92%
    21:00 +14°C° 0 mm 2 mps 718 mmHg 93%
    22:00 +13°C° 0 mm 2 mps 718 mmHg 94%
    23:00 +13°C° 0 mm 2 mps 718 mmHg 94%
    Show more